This is the latest recevied weather packets stored in our database for station/object IZ1UQG-2. If no packets are shown the sender has not sent any weather packets the latest 10 day(s).
| Time | Temp. | Humidity | Pressure | Rain* | Wind** | Luminosity | Snow |
|---|---|---|---|---|---|---|---|
| 1778198234 | 12.22° C | 80% | 1013.1 hPa | 0 mm | - | 0 W/m² | - |
| 1778198164 | 12.22° C | 80% | 1013.1 hPa | 0 mm | - | 0 W/m² | - |
| 1778197505 | 12.78° C | 79% | 1013.3 hPa | 0 mm | - | 0 W/m² | - |
| 1778197264 | 12.78° C | 79% | 1013.2 hPa | 0 mm | - | 0 W/m² | - |
| 1778196784 | 13.33° C | 78% | 1013.2 hPa | 0 mm | - | 0 W/m² | - |
| 1778196544 | 13.33° C | 78% | 1013.2 hPa | 0 mm | - | 0 W/m² | - |
| 1778196245 | 13.33° C | 78% | 1013.1 hPa | 0 mm | - | 0 W/m² | - |
| 1778195764 | 12.78° C | 80% | 1013.1 hPa | 0 mm | - | 0 W/m² | - |
| 1778194755 | 13.33° C | 78% | 1013.1 hPa | 0 mm | - | 0 W/m² | - |
| 1778194684 | 13.33° C | 78% | 1013.2 hPa | 0 mm | - | 0 W/m² | - |
| 1778194324 | 13.33° C | 78% | 1013.1 hPa | 0 mm | - | 0 W/m² | - |
| 1778194264 | 13.33° C | 78% | 1013.1 hPa | 0 mm | - | 0 W/m² | - |
| 1778194084 | 13.33° C | 78% | 1013.1 hPa | 0 mm | - | 0 W/m² | - |
| 1778193784 | 13.33° C | 78% | 1013.1 hPa | 0 mm | - | 0 W/m² | - |
| 1778193664 | 13.33° C | 78% | 1013 hPa | 0 mm | - | 0 W/m² | - |
| 1778193197 | 13.33° C | 77% | 1013 hPa | 0 mm | - | 0 W/m² | - |
| 1778192764 | 13.89° C | 77% | 1013 hPa | 0 mm | - | 0 W/m² | - |
| 1778192344 | 13.89° C | 76% | 1012.8 hPa | 0 mm | - | 0 W/m² | - |
| 1778192164 | 13.89° C | 77% | 1012.8 hPa | 0 mm | - | 0 W/m² | - |
| 1778191924 | 13.89° C | 77% | 1012.8 hPa | 0 mm | - | 0 W/m² | - |
| 1778190304 | 14.44° C | 75% | 1012.7 hPa | 0 mm | - | 0 W/m² | - |
| 1778190243 | 14.44° C | 75% | 1012.6 hPa | 0 mm | - | 0 W/m² | - |
| 1778189944 | 15° C | 75% | 1012.6 hPa | 0 mm | - | 0 W/m² | - |
| 1778189824 | 15° C | 74% | 1012.6 hPa | 0 mm | - | 0 W/m² | - |
| 1778189644 | 14.44° C | 74% | 1012.7 hPa | 0 mm | - | 0 W/m² | - |
* Rain latest hour (hover to see other rain measurements)
** Current wind speed in m/s (hover to see current wind gust speed)